EN

Hourly Weather Abak

Today, 13 June, Sunday

Time Temperature Precipitation Wind Pressure Humidity
00:00 +26°C° 0 mm 1 mps 755 mmHg 90%
01:00 +25°C° 0 mm 1 mps 755 mmHg 91%
02:00 +25°C° 0 mm 1 mps 754 mmHg 91%
03:00 +25°C° 0 mm 1 mps 754 mmHg 92%
04:00 +25°C° 0 mm 1 mps 754 mmHg 93%
05:00 +23°C° 0 mm 0 mps 755 mmHg 92%
06:00 +23°C° 0 mm 0 mps 755 mmHg 92%
07:00 +24°C° 0 mm 0 mps 755 mmHg 91%
08:00 +27°C° 0 mm 1 mps 756 mmHg 85%
09:00 +29°C° 0 mm 1 mps 756 mmHg 78%
10:00 +30°C° 0 mm 1 mps 756 mmHg 71%
11:00 +31°C° 0 mm 1 mps 755 mmHg 66%
12:00 +33°C° 0 mm 1 mps 755 mmHg 61%
13:00 +34°C° 0 mm 1 mps 754 mmHg 56%
14:00 +34°C° 0 mm 1 mps 753 mmHg 57%
15:00 +35°C° 0 mm 2 mps 753 mmHg 57%
16:00 +34°C° 0 mm 2 mps 752 mmHg 58%
17:00 +32°C° 0 mm 2 mps 753 mmHg 66%
18:00 +30°C° 0 mm 2 mps 753 mmHg 74%
19:00 +28°C° 0 mm 2 mps 753 mmHg 82%
20:00 +28°C° 0.3 mm 2 mps 754 mmHg 85%
21:00 +27°C° 0.3 mm 2 mps 754 mmHg 87%
22:00 +26°C° 0.3 mm 1 mps 755 mmHg 90%
23:00 +26°C° 0.7 mm 1 mps 754 mmHg 91%

Tomorrow, 14 June, Monday

Time Temperature Precipitation Wind Pressure Humidity
00:00 +26°C° 0.7 mm 1 mps 754 mmHg 92%
01:00 +26°C° 0.7 mm 1 mps 754 mmHg 94%
02:00 +26°C° 0 mm 1 mps 754 mmHg 94%
03:00 +26°C° 0 mm 1 mps 754 mmHg 94%
04:00 +26°C° 0 mm 1 mps 753 mmHg 94%
05:00 +26°C° 0 mm 1 mps 754 mmHg 94%
06:00 +26°C° 0 mm 1 mps 754 mmHg 94%
07:00 +26°C° 0 mm 1 mps 754 mmHg 94%
08:00 +28°C° 0.1 mm 1 mps 755 mmHg 87%
09:00 +29°C° 0.1 mm 1 mps 755 mmHg 80%
10:00 +30°C° 0.1 mm 1 mps 755 mmHg 74%
11:00 +31°C° 0.8 mm 2 mps 755 mmHg 72%
12:00 +31°C° 0.8 mm 2 mps 754 mmHg 70%
13:00 +32°C° 0.8 mm 2 mps 754 mmHg 69%
14:00 +32°C° 0.5 mm 2 mps 753 mmHg 69%
15:00 +33°C° 0.5 mm 3 mps 753 mmHg 69%
16:00 +33°C° 0.5 mm 3 mps 752 mmHg 69%
17:00 +30°C° 0.5 mm 3 mps 753 mmHg 75%
18:00 +29°C° 0.5 mm 2 mps 753 mmHg 81%
19:00 +27°C° 0.5 mm 2 mps 754 mmHg 87%
20:00 +27°C° 0.1 mm 2 mps 754 mmHg 88%
21:00 +27°C° 0.1 mm 1 mps 755 mmHg 90%
22:00 +26°C° 0.1 mm 1 mps 755 mmHg 92%
23:00 +26°C° 0.2 mm 1 mps 755 mmHg 92%

Day after tomorrow, 15 June, Tuesday

Time Temperature Precipitation Wind Pressure Humidity
00:00 +26°C° 0.2 mm 1 mps 754 mmHg 93%
01:00 +26°C° 0.2 mm 1 mps 754 mmHg 93%
02:00 +26°C° 0.1 mm 1 mps 754 mmHg 94%
03:00 +25°C° 0.1 mm 1 mps 754 mmHg 94%
04:00 +25°C° 0.1 mm 1 mps 754 mmHg 95%
05:00 +24°C° 0 mm 0 mps 754 mmHg 94%
06:00 +24°C° 0 mm 0 mps 754 mmHg 93%
07:00 +24°C° 0 mm 0 mps 754 mmHg 92%
08:00 +24°C° 0.4 mm 0 mps 755 mmHg 93%
09:00 +24°C° 0.4 mm 0 mps 756 mmHg 94%
10:00 +26°C° 0.4 mm 1 mps 756 mmHg 95%
11:00 +26°C° 0.4 mm 1 mps 756 mmHg 93%
12:00 +27°C° 0.4 mm 1 mps 755 mmHg 90%
13:00 +27°C° 0.4 mm 1 mps 755 mmHg 88%
14:00 +28°C° 0 mm 2 mps 754 mmHg 82%
15:00 +29°C° 0 mm 2 mps 753 mmHg 76%
16:00 +30°C° 0 mm 3 mps 753 mmHg 70%
17:00 +29°C° 0 mm 2 mps 753 mmHg 75%
18:00 +28°C° 0 mm 2 mps 753 mmHg 81%
19:00 +26°C° 0 mm 2 mps 754 mmHg 86%
20:00 +26°C° 0 mm 1 mps 754 mmHg 88%
21:00 +25°C° 0 mm 1 mps 754 mmHg 91%
22:00 +25°C° 0 mm 1 mps 755 mmHg 93%
23:00 +25°C° 0 mm 1 mps 754 mmHg 94%

16 June, Wednesday

Time Temperature Precipitation Wind Pressure Humidity
00:00 +25°C° 0 mm 1 mps 754 mmHg 94%
01:00 +22°C° 0 mm 0 mps 754 mmHg 94%
02:00 +22°C° 0 mm 0 mps 754 mmHg 95%
03:00 +22°C° 0 mm 0 mps 754 mmHg 95%
04:00 +22°C° 0 mm 0 mps 754 mmHg 95%
05:00 +22°C° 0 mm 0 mps 755 mmHg 94%
06:00 +22°C° 0 mm 0 mps 755 mmHg 93%
07:00 +23°C° 0 mm 0 mps 755 mmHg 92%
08:00 +26°C° 0 mm 1 mps 756 mmHg 84%
09:00 +28°C° 0 mm 1 mps 756 mmHg 77%
10:00 +30°C° 0 mm 1 mps 756 mmHg 69%
11:00 +31°C° 0.1 mm 1 mps 756 mmHg 65%
12:00 +32°C° 0.1 mm 1 mps 755 mmHg 60%
13:00 +35°C° 0.1 mm 2 mps 755 mmHg 55%
14:00 +34°C° 0.8 mm 2 mps 754 mmHg 61%
15:00 +31°C° 0.8 mm 2 mps 754 mmHg 68%
16:00 +30°C° 0.8 mm 2 mps 753 mmHg 74%
17:00 +29°C° 1.9 mm 2 mps 754 mmHg 78%
18:00 +28°C° 1.9 mm 2 mps 754 mmHg 83%
19:00 +27°C° 1.9 mm 2 mps 754 mmHg 87%
20:00 +27°C° 0.1 mm 2 mps 754 mmHg 89%
21:00 +26°C° 0.1 mm 2 mps 754 mmHg 92%
22:00 +26°C° 0.1 mm 2 mps 755 mmHg 94%
23:00 +26°C° 0 mm 2 mps 755 mmHg 95%

17 June, Thursday

Time Temperature Precipitation Wind Pressure Humidity
00:00 +26°C° 0 mm 1 mps 755 mmHg 96%
01:00 +26°C° 0 mm 1 mps 755 mmHg 96%
02:00 +26°C° 0.1 mm 1 mps 755 mmHg 96%
03:00 +26°C° 0.1 mm 1 mps 755 mmHg 96%
04:00 +26°C° 0.1 mm 1 mps 755 mmHg 97%
05:00 +26°C° 1.1 mm 1 mps 755 mmHg 96%
06:00 +26°C° 1.1 mm 1 mps 755 mmHg 95%
07:00 +26°C° 1.1 mm 1 mps 755 mmHg 95%
08:00 +27°C° 1.5 mm 1 mps 756 mmHg 90%
09:00 +28°C° 1.5 mm 1 mps 756 mmHg 85%
10:00 +29°C° 1.5 mm 2 mps 757 mmHg 81%
11:00 +29°C° 1.5 mm 2 mps 756 mmHg 80%
12:00 +29°C° 1.5 mm 2 mps 756 mmHg 79%
13:00 +30°C° 1.5 mm 2 mps 755 mmHg 78%
14:00 +29°C° 0.7 mm 2 mps 755 mmHg 78%
15:00 +29°C° 0.7 mm 3 mps 755 mmHg 78%
16:00 +29°C° 0.7 mm 3 mps 754 mmHg 78%
17:00 +28°C° 0.2 mm 3 mps 755 mmHg 82%
18:00 +27°C° 0.2 mm 3 mps 755 mmHg 85%
19:00 +27°C° 0.2 mm 2 mps 755 mmHg 89%
20:00 +26°C° 0.4 mm 2 mps 756 mmHg 90%
21:00 +26°C° 0.4 mm 2 mps 756 mmHg 92%
22:00 +26°C° 0.4 mm 1 mps 756 mmHg 93%
23:00 +26°C° 0.1 mm 1 mps 756 mmHg 94%

18 June, Friday

Time Temperature Precipitation Wind Pressure Humidity
00:00 +25°C° 0.1 mm 1 mps 756 mmHg 95%
01:00 +23°C° 0.1 mm 0 mps 756 mmHg 96%
02:00 +25°C° 0.3 mm 1 mps 755 mmHg 96%
03:00 +25°C° 0.3 mm 1 mps 755 mmHg 96%
04:00 +25°C° 0.3 mm 1 mps 755 mmHg 97%
05:00 +25°C° 0 mm 1 mps 755 mmHg 96%
06:00 +23°C° 0 mm 0 mps 756 mmHg 96%
07:00 +23°C° 0 mm 0 mps 756 mmHg 95%
08:00 +25°C° 0 mm 0 mps 756 mmHg 89%
09:00 +26°C° 0 mm 0 mps 756 mmHg 83%
10:00 +28°C° 0 mm 0 mps 757 mmHg 76%
11:00 +31°C° 0.3 mm 1 mps 756 mmHg 73%
12:00 +31°C° 0.3 mm 2 mps 755 mmHg 69%
13:00 +32°C° 0.3 mm 2 mps 755 mmHg 65%
14:00 +31°C° 1.4 mm 2 mps 754 mmHg 70%
15:00 +30°C° 1.4 mm 3 mps 754 mmHg 74%
16:00 +30°C° 1.4 mm 3 mps 754 mmHg 78%
17:00 +29°C° 1.1 mm 3 mps 754 mmHg 83%
18:00 +27°C° 1.1 mm 2 mps 754 mmHg 87%
19:00 +26°C° 1.1 mm 2 mps 755 mmHg 91%
20:00 +26°C° 0.4 mm 2 mps 755 mmHg 93%
21:00 +26°C° 0.4 mm 2 mps 756 mmHg 94%
22:00 +25°C° 0.4 mm 1 mps 756 mmHg 96%
23:00 +25°C° 1 mm 1 mps 756 mmHg 96%
Show more